Tracking 19574 objects as of 16-Feb-2019
HD Live streaming from Space Station
objects crossing your sky now

DEBRIS

Track DEBRIS now!


NORAD ID: 40328
Int'l Code: 2014-000A
Perigee: 7,952.6 km
Apogee: 32,063.1 km
Inclination: 70.6 °
Period: 710.6 minutes
Semi major axis: 26378 km
RCS: Unknown
Launch date: January 1, 2014
Source: (UNKN)
Launch site: PLESETSK MISSILE AND SPACE COMPLEX (PKMTR)

Note: This is SATELLITE DEBRIS
aabbcc
Your satellite tracking list
Your tracking list is empty




NASA's NSSDC Master Catalog

Two Line Element Set (TLE):
1 40328U 14000A   19045.53384014  .00000193  00000-0  00000+0 0  9991
2 40328  70.5524 213.4853 4570032  79.4665 327.3338  2.02636973 38699
Source of the keplerian elements: AFSPC